TimeCST,TemperatureF,Dew PointF,Humidity,Sea Level PressureIn,VisibilityMPH,Wind Direction,Wind SpeedMPH,Gust SpeedMPH,PrecipitationIn,Events,Conditions,WindDirDegrees,DateUTC
12:53 AM,33.1,19.0,56,29.99,10.0,West,9.2,-,N/A,,Clear,280,2013-01-13 06:53:00
1:53 AM,33.1,18.0,54,30.01,10.0,West,8.1,-,N/A,,Clear,270,2013-01-13 07:53:00
2:53 AM,33.1,18.0,54,30.01,10.0,WSW,10.4,-,N/A,,Clear,250,2013-01-13 08:53:00
3:53 AM,28.9,19.0,67,30.03,10.0,NNE,5.8,-,N/A,,Clear,30,2013-01-13 09:53:00
4:53 AM,28.9,18.0,64,30.04,10.0,NNW,6.9,-,N/A,,Clear,340,2013-01-13 10:53:00
6:53 AM,27.0,17.1,66,30.10,10.0,WNW,8.1,-,N/A,,Clear,290,2013-01-13 12:53:00
7:53 AM,25.0,19.9,81,30.16,10.0,North,5.8,-,N/A,,Clear,360,2013-01-13 13:53:00
8:53 AM,26.1,19.9,78,30.18,10.0,NE,6.9,-,N/A,,Clear,40,2013-01-13 14:53:00
9:53 AM,28.9,21.9,75,30.19,10.0,NNE,5.8,-,N/A,,Clear,20,2013-01-13 15:53:00
10:53 AM,30.9,21.0,67,30.18,10.0,NNE,4.6,-,N/A,,Clear,20,2013-01-13 16:53:00
11:53 AM,33.1,21.0,61,30.14,10.0,NNE,5.8,-,N/A,,Clear,30,2013-01-13 17:53:00
12:53 PM,36.0,21.9,57,30.11,10.0,NNE,5.8,-,N/A,,Clear,30,2013-01-13 18:53:00
1:53 PM,37.0,21.0,52,30.07,10.0,NNW,5.8,-,N/A,,Clear,340,2013-01-13 19:53:00
2:53 PM,39.0,23.0,53,30.04,10.0,North,-9999.0,-,N/A,,Clear,0,2013-01-13 20:53:00
3:53 PM,41.0,21.9,47,30.04,10.0,NE,9.2,-,N/A,,Clear,40,2013-01-13 21:53:00
4:53 PM,39.9,21.0,47,30.04,10.0,East,10.4,-,N/A,,Clear,90,2013-01-13 22:53:00
5:53 PM,37.9,21.9,53,30.06,10.0,East,8.1,-,N/A,,Clear,90,2013-01-13 23:53:00
6:53 PM,34.0,23.0,64,30.06,10.0,East,8.1,-,N/A,,Clear,80,2013-01-14 00:53:00
7:53 PM,33.1,24.1,70,30.07,10.0,East,8.1,-,N/A,,Clear,80,2013-01-14 01:53:00
8:53 PM,32.0,25.0,75,30.08,10.0,East,8.1,-,N/A,,Clear,80,2013-01-14 02:53:00
9:53 PM,28.9,24.1,82,30.09,10.0,ENE,4.6,-,N/A,,Clear,70,2013-01-14 03:53:00
10:53 PM,28.9,24.1,82,30.08,10.0,East,5.8,-,N/A,,Clear,80,2013-01-14 04:53:00
11:53 PM,28.0,24.1,85,30.10,10.0,ENE,6.9,-,N/A,,Clear,60,2013-01-14 05:53:00